| time (UTC) | temp C | wind direction | speed KPH | gust KPH | rain 1hr cm | rain 24hr cm | rain mn cm | humidity % | barometer mb |
| 20260508080020 | 12 | 53 | 6.4 | 24.1 | 0.00 | 0.00 | 0.00 | 58 | 1027.2 |
| 20260508074517 | 12 | 13 | 11.3 | 22.5 | 0.00 | 0.00 | 0.00 | 58 | 1027.3 |
| 20260508073016 | 12 | 61 | 12.9 | 24.1 | 0.00 | 0.00 | 0.00 | 59 | 1027.3 |
| 20260508071531 | 12 | 91 | 12.9 | 25.7 | 0.00 | 0.00 | 0.00 | 60 | 1027.1 |
| 20260508070011 | 12 | 61 | 8.0 | 24.1 | 0.00 | 0.00 | 0.00 | 64 | 1026.8 |
| 20260508064511 | 12 | 18 | 14.5 | 24.1 | 0.00 | 0.00 | 0.00 | 66 | 1026.8 |
| 20260508063009 | 11 | 82 | 9.7 | 17.7 | 0.00 | 0.00 | 0.00 | 70 | 1026.7 |
| 20260508061559 | 10 | 34 | 9.7 | 20.9 | 0.00 | 0.00 | 0.00 | 72 | 1026.6 |
| 20260508060057 | 9 | 75 | 6.4 | 20.9 | 0.00 | 0.00 | 0.00 | 76 | 1026.5 |
| 20260508054550 | 9 | 78 | 8.0 | 16.1 | 0.00 | 0.00 | 0.00 | 77 | 1026.5 |
| 20260508053045 | 8 | 85 | 4.8 | 12.9 | 0.00 | 0.00 | 0.00 | 81 | 1026.5 |
| 20260508051541 | 6 | 68 | 4.8 | 9.7 | 0.00 | 0.00 | 0.00 | 83 | 1026.4 |
| 20260508050037 | 5 | 46 | 6.4 | 14.5 | 0.00 | 0.00 | 0.00 | 86 | 1026.1 |
| 20260508044532 | 3 | 43 | 4.8 | 8.0 | 0.00 | 0.00 | 0.00 | 88 | 1026.1 |
| 20260508043027 | 2 | 83 | 1.6 | 6.4 | 0.00 | 0.00 | 0.00 | 88 | 1026.0 |
| 20260508041523 | 1 | 89 | 3.2 | 6.4 | 0.00 | 0.00 | 0.00 | 88 | 1025.8 |
| 20260508033017 | 0 | 42 | 4.8 | 8.0 | 0.00 | 0.00 | 0.00 | 91 | 1025.6 |
| 20260508031511 | -1 | 44 | 1.6 | 6.4 | 0.00 | 0.00 | 0.00 | 92 | 1025.5 |
| 20260508021557 | -1 | 65 | 3.2 | 6.4 | 0.00 | 0.00 | 0.00 | 92 | 1024.8 |
| 20260508020100 | -1 | 66 | 0.0 | 4.8 | 0.00 | 0.00 | 0.00 | 93 | 1024.6 |
| 20260508014553 | -1 | 72 | 3.2 | 6.4 | 0.00 | 0.00 | 0.00 | 94 | 1024.6 |
| 20260508013049 | -1 | 69 | 0.0 | 0.0 | 0.00 | 0.00 | 0.00 | 96 | 1024.4 |
| 20260508011546 | -1 | 69 | 0.0 | 0.0 | 0.00 | 0.00 | 0.00 | 96 | 1024.5 |
| 20260508010044 | -1 | 69 | 0.0 | 0.0 | 0.00 | 0.00 | 0.00 | 95 | 1024.3 |
| 20260508004543 | -1 | 69 | 0.0 | 0.0 | 0.00 | 0.00 | 0.00 | 96 | 1024.3 |
| 20260508003041 | -1 | 69 | 0.0 | 0.0 | 0.00 | 0.00 | 0.00 | 97 | 1024.2 |
| 20260508001539 | -1 | 69 | 0.0 | 0.0 | 0.00 | 0.00 | 0.00 | 97 | 1024.1 |
| 20260508000040 | 0 | 69 | 0.0 | 0.0 | 0.00 | 0.00 | 0.00 | 97 | 1024.1 |
| 20260507234535 | 0 | 69 | 0.0 | 0.0 | 0.00 | 0.00 | 0.00 | 97 | 1024.0 |
| 20260507233040 | 0 | 69 | 0.0 | 0.0 | 0.00 | 0.00 | 0.00 | 96 | 1023.8 |
| 20260507231535 | 0 | 69 | 0.0 | 0.0 | 0.00 | 0.00 | 0.00 | 97 | 1023.7 |
| 20260507230026 | 0 | 69 | 0.0 | 0.0 | 0.00 | 0.00 | 0.00 | 96 | 1023.5 |
| 20260507224526 | 1 | 69 | 0.0 | 0.0 | 0.00 | 0.00 | 0.00 | 95 | 1023.2 |
| 20260507223021 | 1 | 69 | 0.0 | 0.0 | 0.00 | 0.00 | 0.00 | 95 | 1023.2 |
| 20260507221521 | 1 | 69 | 0.0 | 0.0 | 0.00 | 0.00 | 0.00 | 94 | 1023.1 |
| 20260507220019 | 1 | 69 | 0.0 | 0.0 | 0.00 | 0.00 | 0.00 | 93 | 1023.0 |
| 20260507214517 | 2 | 69 | 0.0 | 0.0 | 0.00 | 0.00 | 0.00 | 93 | 1023.0 |
| 20260507213016 | 2 | 69 | 0.0 | 1.6 | 0.00 | 0.00 | 0.00 | 92 | 1022.9 |
| 20260507211519 | 3 | 69 | 0.0 | 0.0 | 0.00 | 0.00 | 0.00 | 92 | 1022.5 |
| 20260507210011 | 3 | 69 | 0.0 | 3.2 | 0.00 | 0.00 | 0.00 | 90 | 1022.4 |
| 20260507204510 | 3 | 69 | 0.0 | 1.6 | 0.00 | 0.00 | 0.00 | 89 | 1022.2 |
| 20260507203010 | 4 | 69 | 0.0 | 3.2 | 0.00 | 0.00 | 0.00 | 87 | 1022.2 |
| 20260507201507 | 5 | 69 | 0.0 | 0.0 | 0.00 | 0.00 | 0.00 | 85 | 1022.0 |
| 20260507200006 | 6 | 69 | 0.0 | 0.0 | 0.00 | 0.00 | 0.00 | 84 | 1021.9 |
| 20260507194505 | 6 | 69 | 0.0 | 3.2 | 0.00 | 0.00 | 0.00 | 82 | 1021.7 |
| 20260507193004 | 7 | 69 | 3.2 | 8.0 | 0.00 | 0.00 | 0.00 | 80 | 1021.5 |
| 20260507191502 | 7 | 69 | 1.6 | 9.7 | 0.00 | 0.00 | 0.00 | 79 | 1021.2 |
| 20260507190106 | 7 | 80 | 3.2 | 8.0 | 0.00 | 0.00 | 0.00 | 78 | 1021.0 |
| 20260507184602 | 8 | 70 | 1.6 | 4.8 | 0.00 | 0.00 | 0.00 | 76 | 1020.8 |
| 20260507183058 | 9 | 63 | 1.6 | 8.0 | 0.00 | 0.00 | 0.00 | 75 | 1020.6 |
| 20260507181555 | 10 | 63 | 3.2 | 9.7 | 0.00 | 0.00 | 0.00 | 73 | 1020.3 |
| 20260507180054 | 10 | 26 | 4.8 | 14.5 | 0.00 | 0.00 | 0.00 | 71 | 1020.0 |
| 20260507174552 | 11 | 49 | 3.2 | 12.9 | 0.00 | 0.00 | 0.00 | 69 | 1019.9 |
| 20260507173050 | 11 | 55 | 4.8 | 16.1 | 0.00 | 0.00 | 0.00 | 67 | 1019.8 |
| 20260507171549 | 12 | 69 | 3.2 | 14.5 | 0.00 | 0.00 | 0.00 | 65 | 1019.6 |
| 20260507170053 | 13 | 5 | 3.2 | 12.9 | 0.00 | 0.00 | 0.00 | 63 | 1019.5 |
| 20260507164557 | 14 | 40 | 3.2 | 16.1 | 0.00 | 0.00 | 0.00 | 63 | 1019.3 |
| 20260507163045 | 14 | 68 | 3.2 | 14.5 | 0.00 | 0.00 | 0.00 | 63 | 1019.3 |
| 20260507161545 | 14 | 122 | 4.8 | 17.7 | 0.00 | 0.00 | 0.00 | 63 | 1019.2 |
| 20260507160044 | 15 | 47 | 6.4 | 16.1 | 0.00 | 0.00 | 0.00 | 61 | 1019.3 |
| 20260507154551 | 15 | 44 | 8.0 | 19.3 | 0.00 | 0.00 | 0.00 | 59 | 1019.1 |
| 20260507153041 | 15 | 44 | 4.8 | 16.1 | 0.00 | 0.00 | 0.00 | 61 | 1019.1 |
| 20260507151539 | 14 | 5 | 6.4 | 19.3 | 0.00 | 0.00 | 0.00 | 57 | 1019.1 |
| 20260507150035 | 14 | 301 | 6.4 | 17.7 | 0.00 | 0.00 | 0.00 | 58 | 1019.0 |
| 20260507144534 | 13 | 336 | 9.7 | 17.7 | 0.00 | 0.00 | 0.00 | 56 | 1018.8 |
| 20260507143035 | 13 | 317 | 11.3 | 19.3 | 0.00 | 0.00 | 0.00 | 56 | 1018.7 |
| 20260507141531 | 13 | 49 | 6.4 | 20.9 | 0.00 | 0.00 | 0.00 | 57 | 1018.8 |
| 20260507140032 | 13 | 355 | 8.0 | 19.3 | 0.00 | 0.00 | 0.00 | 57 | 1018.7 |
| 20260507134532 | 13 | 333 | 6.4 | 19.3 | 0.00 | 0.00 | 0.00 | 54 | 1018.6 |
| 20260507133029 | 13 | 345 | 12.9 | 25.7 | 0.00 | 0.00 | 0.00 | 55 | 1018.3 |
| 20260507131533 | 13 | 306 | 9.7 | 30.6 | 0.00 | 0.00 | 0.00 | 56 | 1018.4 |
| 20260507130026 | 13 | 320 | 8.0 | 24.1 | 0.00 | 0.00 | 0.00 | 56 | 1018.2 |
| 20260507124530 | 13 | 13 | 9.7 | 19.3 | 0.00 | 0.00 | 0.00 | 58 | 1018.1 |
| 20260507123023 | 13 | 340 | 9.7 | 22.5 | 0.00 | 0.00 | 0.00 | 58 | 1017.9 |
| 20260507121522 | 13 | 300 | 16.1 | 25.7 | 0.00 | 0.00 | 0.00 | 57 | 1017.8 |
| 20260507120026 | 13 | 299 | 12.9 | 22.5 | 0.00 | 0.00 | 0.00 | 55 | 1017.7 |
| 20260507114520 | 13 | 312 | 9.7 | 19.3 | 0.00 | 0.00 | 0.00 | 55 | 1017.6 |
| 20260507113019 | 13 | 307 | 8.0 | 20.9 | 0.00 | 0.00 | 0.00 | 52 | 1017.7 |
| 20260507111517 | 13 | 325 | 9.7 | 19.3 | 0.00 | 0.00 | 0.00 | 53 | 1017.8 |
| 20260507110017 | 13 | 312 | 8.0 | 20.9 | 0.00 | 0.00 | 0.00 | 55 | 1017.8 |
| 20260507104514 | 13 | 278 | 9.7 | 24.1 | 0.00 | 0.00 | 0.00 | 59 | 1017.7 |
| 20260507103013 | 13 | 336 | 11.3 | 22.5 | 0.00 | 0.00 | 0.00 | 56 | 1017.5 |
| 20260507101515 | 13 | 355 | 12.9 | 20.9 | 0.00 | 0.00 | 0.00 | 61 | 1017.4 |
| 20260507100009 | 12 | 312 | 9.7 | 20.9 | 0.00 | 0.00 | 0.00 | 56 | 1017.7 |
| 20260507094508 | 12 | 331 | 6.4 | 14.5 | 0.00 | 0.00 | 0.00 | 58 | 1017.2 |
| 20260507093004 | 12 | 24 | 1.6 | 17.7 | 0.00 | 0.00 | 0.00 | 53 | 1017.2 |
| 20260507091600 | 12 | 61 | 3.2 | 16.1 | 0.00 | 0.00 | 0.00 | 54 | 1017.1 |
| 20260507090101 | 11 | 9 | 4.8 | 17.7 | 0.00 | 0.00 | 0.00 | 53 | 1017.1 |
| 20260507084559 | 11 | 19 | 4.8 | 19.3 | 0.00 | 0.00 | 0.00 | 56 | 1016.9 |
| 20260507083052 | 10 | 348 | 9.7 | 22.5 | 0.00 | 0.00 | 0.00 | 55 | 1016.7 |
| 20260507081548 | 10 | 294 | 4.8 | 19.3 | 0.00 | 0.00 | 0.00 | 57 | 1016.8 |